Weather History for Bar Harbor, ME

Change the Weather History Date:

Saturday, November 30, 2013

  Actual Average Record
Temperature  
Mean Temperature 21 °F -  
Max Temperature 35 °F 40 °F 58 °F (1963)
Min Temperature 10 °F 26 °F 10 °F (1996)
Degree Days  
Heating Degree Days 44    
Moisture  
Dew Point 14 °F    
Average Humidity 75    
Maximum Humidity 100    
Minimum Humidity 40    
Precipitation  
Precipitation 0.00 in - - ()
Sea Level Pressure  
Sea Level Pressure 30.68 in    
Wind  
Wind Speed 2 mph (WSW)    
Max Wind Speed 16 mph    
Max Gust Speed 25 mph    
Visibility 10 miles    
Events      
Averages and records for this station are not official NWS values.
T = Trace of Precipitation, MM = Missing Value Source: NWS Daily Summary

Daily Weather History Graph

Daily Weather History Graph

Search for Another Location

Airport:

Trip Planner

Search our weather history database for the weather conditions in past years. The results will help you decide how hot, cold, wet, or windy it might be!

Date:

Astronomy

Nov. 30, 2013 Rise Set
Actual Time 6:48 AM EST 3:55 PM EST
Civil Twilight 6:16 AM EST 4:28 PM EST
Nautical Twilight 5:39 AM EST 5:04 PM EST
Astronomical Twilight 5:04 AM EST 5:39 PM EST
Moon 3:50 AM EST (11/30) 2:21 PM EST (11/30)
Length of Visible Light 10h 12m
Length of Day
9h 06m
Waning Crescent, 7% of the Moon is Illuminated
Nov 30
Waning Crescent
Dec 2
New
Dec 9
First Quarter
Dec 17
Full
Dec 25
Last Quarter

Hourly Weather History & Observations

Time (EST) Temp. Windchill Dew Point Humidity Pressure Visibility Wind Dir Wind Speed Gust Speed Precip Events Conditions
12:15 AM 15.8 °F 8.6 °F 12.2 °F 86% 30.71 in 10.0 mi NW 4.6 mph - N/A   Clear
12:35 AM 15.8 °F 10.2 °F 12.2 °F 86% 30.72 in 10.0 mi NW 3.5 mph - N/A   Clear
12:55 AM 15.8 °F 10.2 °F 12.2 °F 86% 30.72 in 10.0 mi NW 3.5 mph - N/A   Clear
1:15 AM 14.0 °F - 12.2 °F 93% 30.73 in 10.0 mi Calm Calm - N/A   Clear
1:35 AM 15.8 °F - 12.2 °F 86% 30.73 in 10.0 mi Calm Calm - N/A   Clear
1:55 AM 14.0 °F - 10.4 °F 86% 30.74 in 10.0 mi Calm Calm - N/A   Clear
2:15 AM 14.0 °F 6.5 °F 12.2 °F 93% 30.74 in 10.0 mi NNW 4.6 mph - N/A   Clear
2:35 AM 15.8 °F 7.2 °F 12.2 °F 86% 30.74 in 10.0 mi NW 5.8 mph - N/A   Clear
2:55 AM 15.8 °F 10.2 °F 12.2 °F 86% 30.74 in 10.0 mi NNW 3.5 mph - N/A   Clear
3:15 AM 14.0 °F - 10.4 °F 86% 30.74 in 10.0 mi Calm Calm - N/A   Clear
3:35 AM 12.2 °F 6.1 °F 10.4 °F 92% 30.74 in 10.0 mi NNW 3.5 mph - N/A   Clear
3:55 AM 14.0 °F - 10.4 °F 86% 30.75 in 10.0 mi Calm Calm - N/A   Clear
4:15 AM 12.2 °F 6.1 °F 10.4 °F 92% 30.75 in 10.0 mi NNW 3.5 mph - N/A   Clear
4:35 AM 14.0 °F - 10.4 °F 86% 30.76 in 10.0 mi Calm Calm - N/A   Clear
4:55 AM 12.2 °F - 10.4 °F 92% 30.76 in 10.0 mi Calm Calm - N/A   Clear
5:15 AM 12.2 °F - 10.4 °F 92% 30.77 in 10.0 mi Calm Calm - N/A   Clear
5:35 AM 10.4 °F - 10.4 °F 100% 30.77 in 10.0 mi Calm Calm - N/A   Clear
5:55 AM 10.4 °F 4.0 °F 8.6 °F 92% 30.77 in 10.0 mi West 3.5 mph - N/A   Clear
6:15 AM 10.4 °F - 8.6 °F 92% 30.78 in 10.0 mi Calm Calm - N/A   Clear
6:35 AM 10.4 °F - 8.6 °F 92% 30.78 in 10.0 mi Calm Calm - N/A   Clear
6:55 AM 10.4 °F - 8.6 °F 92% 30.79 in 10.0 mi Calm Calm - N/A   Clear
7:15 AM 10.4 °F - 8.6 °F 92% 30.79 in 10.0 mi Calm Calm - N/A   Clear
7:35 AM 12.2 °F - 10.4 °F 92% 30.79 in 9.0 mi Calm Calm - N/A   Clear
7:55 AM 15.8 °F - 14.0 °F 93% 30.79 in 10.0 mi Calm Calm - N/A   Clear
8:15 AM 19.4 °F - 17.6 °F 93% 30.80 in 10.0 mi Calm Calm - N/A   Clear
8:35 AM 21.2 °F - 15.8 °F 80% 30.79 in 10.0 mi Calm Calm - N/A   Clear
8:55 AM 24.8 °F - 17.6 °F 74% 30.79 in 10.0 mi Calm Calm - N/A   Clear
9:15 AM 24.8 °F - 21.2 °F 86% 30.80 in 10.0 mi Calm Calm - N/A   Clear
9:35 AM 24.8 °F - 19.4 °F 80% 30.80 in 10.0 mi Calm Calm - N/A   Clear
9:55 AM 26.6 °F - 17.6 °F 69% 30.79 in 10.0 mi Calm Calm - N/A   Clear
10:15 AM 26.6 °F - 17.6 °F 69% 30.79 in 10.0 mi Calm Calm - N/A   Clear
10:35 AM 28.4 °F 24.6 °F 14.0 °F 55% 30.77 in 10.0 mi NW 3.5 mph - N/A   Clear
10:55 AM 28.4 °F - 14.0 °F 55% 30.76 in 10.0 mi Calm Calm - N/A   Clear
11:15 AM 28.4 °F 24.6 °F 12.2 °F 51% 30.75 in 10.0 mi SE 3.5 mph - N/A   Clear
11:35 AM 28.4 °F - 10.4 °F 47% 30.74 in 10.0 mi Calm Calm - N/A   Clear
11:55 AM 30.2 °F 26.7 °F 8.6 °F 40% 30.73 in 10.0 mi WSW 3.5 mph - N/A   Clear
12:15 PM 30.2 °F - 10.4 °F 44% 30.72 in 10.0 mi Calm Calm - N/A   Clear
12:35 PM 30.2 °F 21.9 °F 10.4 °F 44% 30.72 in 10.0 mi South 9.2 mph - N/A   Clear
12:55 PM 26.6 °F 21.2 °F 10.4 °F 51% 30.71 in 10.0 mi South 4.6 mph - N/A   Clear
1:15 PM 28.4 °F 21.2 °F 10.4 °F 47% 30.70 in 10.0 mi SSW 6.9 mph - N/A   Clear
1:35 PM 28.4 °F 22.2 °F 10.4 °F 47% 30.69 in 10.0 mi South 5.8 mph - N/A   Clear
1:55 PM 28.4 °F 21.2 °F 10.4 °F 47% 30.68 in 10.0 mi SSW 6.9 mph - N/A   Clear
2:15 PM 28.4 °F 22.2 °F 10.4 °F 47% 30.68 in 10.0 mi SSW 5.8 mph - N/A   Clear
2:35 PM 28.4 °F 19.7 °F 10.4 °F 47% 30.67 in 10.0 mi South 9.2 mph - N/A   Clear
2:55 PM 28.4 °F 21.2 °F 10.4 °F 47% 30.66 in 10.0 mi SSW 6.9 mph - N/A   Clear
3:15 PM 26.6 °F 21.2 °F 10.4 °F 51% 30.66 in 10.0 mi SW 4.6 mph - N/A   Clear
3:35 PM 26.6 °F 20.0 °F 8.6 °F 47% 30.66 in 10.0 mi SW 5.8 mph - N/A   Clear
3:55 PM 24.8 °F 20.5 °F 8.6 °F 50% 30.66 in 10.0 mi WSW 3.5 mph - N/A   Clear
4:15 PM 24.8 °F - 8.6 °F 50% 30.65 in 10.0 mi Calm Calm - N/A   Clear
4:35 PM 23.0 °F - 8.6 °F 54% 30.65 in 10.0 mi Calm Calm - N/A   Clear
4:55 PM 21.2 °F - 8.6 °F 58% 30.64 in 10.0 mi Calm Calm - N/A   Clear
5:15 PM 19.4 °F - 10.4 °F 68% 30.64 in 10.0 mi Calm Calm - N/A   Clear
5:35 PM 19.4 °F 14.3 °F 10.4 °F 68% 30.63 in 10.0 mi SSE 3.5 mph - N/A   Scattered Clouds
5:55 PM 21.2 °F - 12.2 °F 68% 30.63 in 10.0 mi Calm Calm - N/A   Overcast
6:15 PM 21.2 °F - 12.2 °F 68% 30.62 in 10.0 mi Calm Calm - N/A   Overcast
6:35 PM 21.2 °F - 15.8 °F 80% 30.61 in 10.0 mi Calm Calm - N/A   Mostly Cloudy
6:55 PM 21.2 °F - 14.0 °F 74% 30.59 in 10.0 mi Calm Calm - N/A   Scattered Clouds
7:15 PM 21.2 °F - 14.0 °F 74% 30.59 in 10.0 mi Calm Calm - N/A   Mostly Cloudy
7:35 PM 21.2 °F - 17.6 °F 86% 30.58 in 10.0 mi Calm Calm - N/A   Mostly Cloudy
7:55 PM 21.2 °F - 17.6 °F 86% 30.57 in 10.0 mi Calm Calm - N/A   Mostly Cloudy
8:15 PM 23.0 °F - 17.6 °F 80% 30.56 in 10.0 mi Calm Calm - N/A   Overcast
8:35 PM 24.8 °F - 19.4 °F 80% 30.56 in 6.0 mi Calm Calm - N/A   Overcast
8:55 PM 24.8 °F - 21.2 °F 86% 30.55 in 5.0 mi Calm Calm - N/A   Overcast
9:15 PM 24.8 °F - 19.4 °F 80% 30.54 in 10.0 mi Calm Calm - N/A   Overcast
9:35 PM 24.8 °F - 21.2 °F 86% 30.53 in 10.0 mi Calm Calm - N/A   Overcast
9:55 PM 24.8 °F - 21.2 °F 86% 30.52 in 10.0 mi Calm Calm - N/A   Overcast
10:15 PM 24.8 °F - 21.2 °F 86% 30.51 in 10.0 mi Calm Calm - N/A   Overcast
10:35 PM 26.6 °F - 24.8 °F 93% 30.49 in 10.0 mi Calm Calm - N/A   Overcast
10:55 PM 26.6 °F - 24.8 °F 93% 30.48 in 10.0 mi Calm Calm - N/A   Overcast
11:15 PM 28.4 °F - 26.6 °F 93% 30.46 in 10.0 mi Calm Calm - N/A   Overcast
11:35 PM 32.0 °F 23.0 °F 26.6 °F 80% 30.44 in 10.0 mi SSW 11.5 mph - N/A   Overcast
11:55 PM 35.6 °F 25.9 °F 26.6 °F 70% 30.43 in 10.0 mi SSW 16.1 mph 25.3 mph N/A   Overcast